N0MR Weather Reports


time (UTC)temp
C
wind
direction
speed
KPH
gust
KPH
rain 1hr
cm
rain 24hr
cm
rain mn
cm
humidity
%
barometer
mb
20260906024923 15 159 0.0 0.0 0.00 0.03 0.03 95 1018.0
20260906023922 15 159 0.0 0.0 0.00 0.03 0.03 95 1018.0
20260906022923 15 160 0.0 0.0 0.00 0.03 0.03 94 1018.1
20260906021932 15 160 0.0 0.0 0.00 0.03 0.03 94 1018.1
20260906010928 16 159 0.0 0.0 0.00 0.03 0.03 93 1017.3
20260906005928 17 159 0.0 0.0 0.00 0.03 0.03 92 1017.4
20260906004928 17 159 0.0 0.0 0.00 0.03 0.03 92 1017.4
20260906003925 17 159 0.0 0.0 0.00 0.03 0.03 92 1017.1
20260906002927 17 159 0.0 0.0 0.00 0.03 0.03 92 1017.1
20260906001925 17 159 0.0 0.0 0.00 0.03 0.03 91 1017.2
20260906000934 17 159 0.0 0.0 0.00 0.03 0.03 91 1017.2
20260905235924 17 159 0.0 1.6 0.00 0.03 0.03 88 1017.3
20260905234924 17 159 0.0 1.6 0.00 0.03 0.03 88 1017.3
20260905233924 18 159 0.0 1.6 0.00 0.03 0.03 87 1017.3
20260905232925 18 159 0.0 1.6 0.00 0.03 0.03 87 1017.3
20260905231924 18 154 0.0 3.2 0.00 0.03 0.03 83 1017.7
20260905230924 18 154 0.0 3.2 0.00 0.03 0.03 83 1017.7
20260905225924 19 254 0.0 1.6 0.00 0.03 0.03 84 1017.5
20260905224928 19 254 0.0 1.6 0.00 0.03 0.03 84 1017.5
20260905223925 20 189 0.0 3.2 0.00 0.03 0.03 83 1017.5
20260905222924 20 189 0.0 3.2 0.00 0.03 0.03 83 1017.5
20260905221925 21 203 0.0 3.2 0.00 0.03 0.03 81 1017.7
20260905220927 21 203 0.0 3.2 0.00 0.03 0.03 81 1017.7
20260905215928 21 197 0.0 1.6 0.00 0.03 0.03 80 1017.9
20260905214925 22 182 0.0 3.2 0.00 0.03 0.03 75 1017.9
20260905212924 22 199 1.6 1.6 0.00 0.03 0.03 78 1017.8
20260905211925 22 199 1.6 1.6 0.00 0.03 0.03 78 1017.8
20260905210924 22 182 0.0 6.4 0.00 0.03 0.03 77 1018.1
20260905205928 22 182 0.0 6.4 0.00 0.03 0.03 77 1018.1
20260905202925 22 268 0.0 1.6 0.00 0.03 0.03 80 1018.1
20260905201926 22 268 0.0 1.6 0.00 0.03 0.03 80 1018.1
20260905200935 21 275 0.0 1.6 0.00 0.03 0.03 84 1018.2
20260905195926 21 275 0.0 1.6 0.00 0.03 0.03 84 1018.2
20260905194928 21 275 0.0 1.6 0.00 0.03 0.03 84 1018.5
20260905193926 21 275 0.0 1.6 0.00 0.03 0.03 84 1018.5
20260905192925 20 199 0.0 0.0 0.00 0.03 0.03 85 1018.6
20260905191935 20 199 0.0 0.0 0.00 0.03 0.03 85 1018.6
20260905184935 19 344 0.0 1.6 0.00 0.03 0.03 88 1018.9
20260905183927 19 136 0.0 0.0 0.00 0.03 0.03 92 1019.0
20260905182925 19 136 0.0 0.0 0.00 0.03 0.03 92 1019.0
20260905181925 18 142 0.0 1.6 0.00 0.03 0.03 92 1018.9
20260905175925 18 139 0.0 1.6 0.00 0.03 0.03 92 1018.9
20260905174926 18 139 0.0 1.6 0.00 0.03 0.03 92 1018.9
20260905173926 17 186 0.0 3.2 0.00 0.03 0.03 94 1019.1
20260905172929 17 186 0.0 3.2 0.00 0.03 0.03 94 1019.1
20260905171927 17 302 0.0 1.6 0.00 0.03 0.03 95 1018.9
20260905170926 17 302 0.0 1.6 0.00 0.03 0.03 95 1018.9
20260905165926 17 245 0.0 0.0 0.00 0.03 0.03 96 1019.1
20260905164929 17 245 0.0 0.0 0.00 0.03 0.03 96 1019.1
20260905163927 16 245 0.0 0.0 0.00 0.03 0.03 97 1019.3
20260905162926 16 245 0.0 0.0 0.00 0.03 0.03 97 1019.3
20260905161927 16 202 0.0 0.0 0.00 0.03 0.03 97 1019.0
20260905160927 16 202 0.0 0.0 0.00 0.03 0.03 97 1019.0
20260905140928 15 326 0.0 0.0 0.00 0.03 0.03 98 1018.6
20260905135927 15 326 0.0 0.0 0.00 0.03 0.03 98 1018.6
20260905121927 14 327 0.0 3.2 0.00 0.03 0.03 97 1016.9
20260905120930 14 327 0.0 3.2 0.00 0.03 0.03 97 1016.9
20260905115930 13 328 0.0 0.0 0.00 0.03 0.03 97 1016.8
20260905114932 13 328 0.0 0.0 0.00 0.03 0.03 97 1016.8
20260905113928 13 263 0.0 0.0 0.00 0.03 0.03 97 1016.8
20260905111929 13 265 0.0 4.8 0.00 0.03 0.03 97 1016.8
20260905110928 13 265 0.0 4.8 0.00 0.03 0.03 97 1016.8
20260905105929 13 277 0.0 1.6 0.00 0.03 0.03 97 1016.8
20260905104931 13 277 0.0 1.6 0.00 0.03 0.03 97 1016.8
20260905103928 13 277 0.0 1.6 0.00 0.03 0.03 97 1016.7
20260905102929 13 277 0.0 1.6 0.00 0.03 0.03 97 1016.7
20260905101931 14 276 0.0 0.0 0.00 0.03 0.03 97 1016.9
20260905100928 14 276 0.0 0.0 0.00 0.03 0.03 97 1016.9
20260905095930 14 276 0.0 0.0 0.00 0.03 0.03 97 1017.0
20260905094929 14 276 0.0 0.0 0.00 0.03 0.03 97 1017.0
20260905093928 14 276 0.0 0.0 0.00 0.03 0.03 97 1017.0
20260905092929 14 276 0.0 0.0 0.00 0.03 0.03 97 1017.0
20260905091929 14 276 0.0 4.8 0.00 0.03 0.03 97 1017.1
20260905085930 14 276 0.0 1.6 0.00 0.03 0.03 97 1017.2
20260905084932 15 272 0.0 0.0 0.00 0.03 0.03 97 1017.3
20260905083929 15 272 0.0 0.0 0.00 0.03 0.03 97 1017.3
20260905082929 15 272 0.0 0.0 0.00 0.03 0.03 97 1017.2
20260905081930 15 272 0.0 0.0 0.00 0.03 0.03 97 1017.2
20260905080929 15 272 0.0 0.0 0.03 0.03 0.03 97 1017.2
20260905075930 15 272 0.0 0.0 0.03 0.03 0.03 97 1017.2
20260905074929 15 272 0.0 0.0 0.03 0.10 0.03 97 1017.0
20260905073929 15 272 0.0 0.0 0.03 0.10 0.03 97 1017.0
20260905072929 15 272 0.0 0.0 0.03 1.27 0.03 97 1016.8
20260905071930 15 272 0.0 0.0 0.03 1.27 0.03 97 1016.8
20260905070929 15 272 0.0 0.0 0.00 1.30 0.00 97 1016.8
20260905065930 15 272 0.0 0.0 0.00 1.30 0.00 97 1016.8
20260905064929 15 272 0.0 3.2 0.00 1.32 0.00 97 1017.0
20260905063930 15 272 0.0 3.2 0.00 1.32 0.00 97 1017.0
20260905062940 15 272 0.0 1.6 0.00 1.35 0.00 97 1017.0
20260905061930 15 272 0.0 1.6 0.00 1.35 0.00 97 1017.0
20260905060930 15 306 0.0 1.6 0.00 1.35 0.00 97 1017.0
20260905055930 15 306 0.0 1.6 0.00 1.35 0.00 97 1017.0
20260905054933 15 306 0.0 1.6 0.00 1.35 0.00 97 1017.0
20260905053932 15 306 0.0 0.0 0.00 1.35 0.00 97 1017.0
20260905052934 15 306 0.0 0.0 0.00 1.35 0.00 97 1017.0
20260905051931 15 306 0.0 4.8 0.00 1.35 0.00 97 1016.9
20260905050931 15 306 0.0 4.8 0.00 1.35 0.00 97 1016.9
20260905045930 15 238 0.0 1.6 0.00 1.40 1.40 97 1016.8
20260905044931 15 238 0.0 1.6 0.00 1.40 1.40 97 1016.8
20260905043930 15 238 0.0 1.6 0.00 1.70 1.70 97 1016.9
20260905042941 15 238 0.0 1.6 0.00 1.70 1.70 97 1016.9
20260905041931 15 238 0.0 1.6 0.00 1.70 1.70 97 1017.1
20260905040930 15 238 0.0 1.6 0.00 1.70 1.70 97 1017.1
20260905035931 15 255 0.0 3.2 0.00 1.70 1.35 97 1017.0
20260905033930 15 290 0.0 1.6 0.00 1.70 1.70 97 1016.9
20260905032934 15 290 0.0 1.6 0.00 1.70 1.70 97 1016.9
20260905031930 15 290 0.0 3.2 0.00 1.83 1.70 97 1016.9